Tracking 34348 objects as of 9-Jun-2026
HD Live streaming from Space Station
objects crossing your sky now

DELTA 1 DEB

Track DELTA 1 DEB now!
10-day predictions


NORAD ID: 7021
Int'l Code: 1973-086M
Perigee: 1,401.2 km
Apogee: 1,685.3 km
Inclination: 101.7 °
Period: 116.8 minutes
Semi major axis: 7914 km
RCS: 0.1794 m2 (medium)
Launch date: November 6, 1973
Source: United States (US)
Launch site: AIR FORCE WESTERN TEST RANGE (AFWTR)

Note: This is SATELLITE DEBRIS
Your satellite tracking list
Your tracking list is empty




NASA's NSSDC Master Catalog

Two Line Element Set (TLE):
1  7021U 73086M   26160.06040191  .00000821  00000-0  66986-2 0  9998
2  7021 101.6799 199.7590 0179528 235.8385 181.5073 12.33075017348280
Source of the keplerian elements: AFSPC